Location: Frankfurt am Main
(50.1109°N, 8.6821°E)
Time: 13:04:30
(UTC+01:00)

ISS - Visible Passes

Search period start: 23 January 2021 00:00
Search period end: 02 February 2021 00:00
Orbit: 418 x 421 km, 51.6° (Epoch: 23 January)

Date Brightness Start Highest point End Pass type
(mag) Time Alt. Az. Time Alt. Az. Time Alt. Az.
23 Jan -2.6 17:56:03 10° SSW 17:59:07 32° SSE 18:01:48 12° E visible
23 Jan -2.6 19:32:22 10° W 19:34:47 44° W 19:34:47 44° W visible
24 Jan -3.8 18:45:01 10° WSW 18:48:23 83° SSE 18:49:24 43° E visible
24 Jan -0.4 20:21:57 10° W 20:22:22 13° W 20:22:22 13° W visible
25 Jan -3.5 17:57:42 10° WSW 18:01:02 64° SSE 18:03:59 13° ENE visible
25 Jan -2.6 19:34:32 10° W 19:36:57 42° WNW 19:36:57 42° WNW visible
26 Jan -3.7 18:47:06 10° W 18:50:29 70° N 18:51:31 40° ENE visible
26 Jan -0.4 20:24:04 10° WNW 20:24:29 13° WNW 20:24:29 13° WNW visible
27 Jan -3.7 17:59:40 10° W 18:03:04 81° NNW 18:06:04 13° ENE visible
27 Jan -2.6 19:36:39 10° WNW 19:39:03 41° WNW 19:39:03 41° WNW visible
28 Jan -3.7 18:49:13 10° W 18:52:35 65° N 18:53:36 40° ENE visible
28 Jan -0.4 20:26:06 10° WNW 20:26:34 13° WNW 20:26:34 13° WNW visible
29 Jan -3.6 18:01:46 10° W 18:05:08 65° N 18:08:10 12° E visible
29 Jan -2.7 19:38:40 10° WNW 19:41:09 45° WNW 19:41:09 45° WNW visible
30 Jan -3.8 18:51:14 10° WNW 18:54:38 79° NNE 18:55:45 39° E visible
30 Jan -0.5 20:28:11 10° W 20:28:44 14° W 20:28:44 14° W visible
31 Jan -3.7 18:03:47 10° WNW 18:07:10 69° N 18:10:24 11° E visible
31 Jan -2.6 19:40:40 10° WNW 19:43:23 43° WSW 19:43:23 43° WSW visible
01 Feb -3.5 18:53:11 10° WNW 18:56:34 67° SSW 18:58:07 29° SE visible
01 Feb -0.4 20:30:40 10° W 20:31:06 12° WSW 20:31:06 12° WSW visible
